[[{"header":{"parameterUnit":"m.s-1","parameterCategory":2,"la1":30.2991,"la2":30.254,"lo1":-89.0895,"lo2":-89.0444,"dy":0.0017,"dx":0.0017,"nx":28,"ny":28,"refTime":"2025-07-20T03:00:00:Z","depth":"0","parameterNumber":2,"parameterNumberName":"U-component_of_CURRENTS"},"data":[0,0,0,0,0,0,0,0,0,0,0,0,0,0,0,0,0,0,0,0,0,0,0,0,0,0,0,0,0,0,0,0,0,0,0,0,0,0,0,0,0,0,0,0,0,0,0,0,0,0,0,0,0,0,0,0,0,0,-0.2695,-0.2696,0,-0.2725,-0.2725,-0.2725,-0.2657,-0.2655,-0.2653,-0.2651,-0.2517,-0.2515,-0.2513,0,0,0,0,0,0,0,0,0,0,0,0,0,-0.2589,-0.2591,-0.2695,-0.2696,-0.2696,-0.2725,-0.2725,-0.2725,-0.2658,-0.2655,-0.2653,-0.2651,-0.2517,-0.2515,-0.2513,0,0,0,0,0,0,0,0,0,0,0,0,0,-0.2626,-0.2591,-0.2695,-0.2668,-0.2666,-0.2725,-0.2725,-0.2725,-0.2658,-0.2655,-0.2652,-0.2649,-0.2518,-0.2516,-0.2513,-0.2555,0,0,-0.2505,-0.2504,0,0,0,0,0,0,0,0,-0.2624,-0.263,-0.2671,-0.267,-0.2668,-0.2686,-0.2638,-0.2661,-0.2659,-0.2658,-0.2651,-0.2648,-0.2562,-0.2556,-0.2567,-0.2549,-0.2543,-0.2505,-0.2503,-0.2502,-0.2501,0,0,0,0,0,0,0,-0.2621,-0.2628,-0.2704,-0.2672,-0.267,-0.2657,-0.2659,-0.2643,-0.2621,-0.2658,-0.2654,-0.2662,-0.2559,-0.257,-0.2563,-0.2541,-0.2505,-0.2502,-0.2501,-0.25,-0.2505,-0.2506,0,0,0,0,0,0,-0.2626,-0.2626,-0.2704,-0.2706,-0.2641,-0.2662,-0.2663,-0.2681,-0.2625,-0.2616,-0.2665,-0.2659,-0.2576,-0.2566,-0.2557,-0.2551,-0.2502,-0.2499,-0.2498,-0.2503,-0.2505,-0.2507,0,0,0,0,0,0,-0.2624,-0.2633,-0.2702,-0.2667,-0.2675,-0.2667,-0.2687,-0.2684,-0.2685,-0.2632,-0.2618,-0.2669,-0.2573,-0.2561,-0.2542,-0.2546,-0.2498,-0.2496,-0.2501,-0.2504,-0.2506,-0.2571,0,0,0,0,0,0,-0.2621,-0.2633,-0.2643,-0.2668,-0.2678,-0.2738,-0.269,-0.2686,-0.2696,-0.2689,-0.2632,-0.2617,-0.257,-0.2547,-0.254,-0.2542,-0.2494,-0.2499,-0.2502,-0.2505,-0.2567,-0.2575,-0.2583,0,0,0,0,0,-0.2617,-0.2651,-0.2644,-0.2653,-0.2695,-0.274,-0.2744,-0.2725,-0.2699,-0.2713,-0.2672,-0.2618,-0.2561,-0.2547,-0.2538,-0.2539,-0.2497,-0.2501,-0.2505,-0.2563,-0.2574,-0.2583,0,0,0,0,0,0,-0.2618,-0.2649,-0.2641,-0.2683,-0.2708,-0.2729,-0.2743,-0.2737,-0.2722,-0.2704,-0.2644,-0.2628,-0.2616,-0.2582,-0.2567,-0.2554,-0.252,-0.2522,-0.2567,-0.2577,-0.2585,-0.2581,-0.2492,0,0,0,0,0,-0.2625,-0.265,-0.2681,-0.2714,-0.2728,-0.2738,-0.2752,-0.2747,-0.2742,-0.2733,-0.2695,-0.2656,-0.2633,-0.2606,-0.2586,-0.2581,-0.2502,-0.2578,-0.2586,-0.2593,-0.2587,-0.2514,-0.2514,-0.252,-0.252,-0.2519,0,0,-0.2631,-0.2655,-0.2666,-0.2714,-0.2728,-0.2754,-0.2738,-0.2771,-0.2775,-0.2721,-0.2708,-0.2689,-0.2644,-0.2635,-0.2625,-0.2597,-0.254,-0.2598,-0.2604,-0.2594,-0.2518,-0.2517,-0.2516,-0.2522,-0.2522,-0.2521,0,0,-0.2655,-0.2683,-0.2702,-0.273,-0.2764,-0.2776,-0.2788,-0.2812,-0.2802,-0.2812,-0.2767,-0.2753,-0.2723,-0.2686,-0.2664,-0.2711,-0.2597,-0.2706,-0.2726,-0.2656,-0.2653,-0.2651,-0.2497,-0.248,-0.2696,-0.2697,-0.2697,0,-0.2652,-0.2684,-0.2718,-0.2748,-0.276,-0.2785,-0.2802,-0.2819,-0.2828,-0.2818,-0.281,-0.2776,-0.2745,-0.2713,-0.2732,-0.2724,-0.2638,-0.2687,-0.2662,-0.2659,-0.2654,-0.2498,-0.2478,-0.27,-0.27,-0.2699,-0.2699,0,-0.2683,-0.2708,-0.2731,-0.2762,-0.2791,-0.2818,-0.2845,-0.286,-0.2858,-0.2861,-0.285,-0.2829,-0.2795,-0.2797,-0.2778,-0.2743,-0.2672,-0.2688,-0.2629,-0.2657,-0.249,-0.2469,-0.2705,-0.2704,-0.2703,-0.2702,0,0,-0.2652,-0.2729,-0.2729,-0.2729,-0.2793,-0.2809,-0.2842,-0.2857,-0.2839,-0.2874,-0.2832,-0.2854,-0.2846,-0.2822,-0.2798,-0.2752,-0.2647,-0.2713,-0.2707,-0.2542,-0.2416,-0.2295,-0.2258,-0.2657,-0.2655,-0.2653,-0.229,0,-0.2643,-0.2683,-0.273,-0.2747,-0.2757,-0.2799,-0.2816,-0.284,-0.2846,-0.2818,-0.2824,-0.2791,-0.2852,-0.2816,-0.2797,-0.2668,-0.2602,-0.2739,-0.2429,-0.2418,-0.2294,-0.2235,-0.2222,-0.1894,-0.2269,-0.2265,-0.2262,0,-0.2621,-0.2653,-0.2673,-0.2701,-0.2708,-0.2729,-0.2727,-0.2747,-0.2752,-0.2752,-0.2761,-0.2752,-0.2694,-0.2745,-0.2569,-0.2647,-0.2551,-0.2468,-0.2452,-0.2303,-0.2258,-0.1939,-0.1839,-0.1855,-0.2228,-0.2231,-0.2233,0,-0.2528,-0.2587,-0.259,-0.2608,-0.2669,-0.267,-0.2691,-0.2717,-0.2698,-0.269,-0.2644,-0.2634,-0.2533,-0.2486,-0.2347,-0.2443,-0.2098,-0.2199,-0.1995,-0.1981,-0.189,-0.1872,-0.1758,-0.2087,-0.2088,-0.2089,-0.209,0,-0.2471,-0.2464,-0.2544,-0.2545,-0.2529,-0.2597,-0.2564,-0.2593,-0.2584,-0.2527,-0.2591,-0.2501,-0.2467,-0.2293,-0.2251,-0.1993,-0.2011,-0.1956,-0.1884,-0.1907,-0.1896,-0.1843,-0.1897,-0.2076,-0.2079,-0.2081,-0.2084,0,-0.2353,-0.2416,-0.2412,-0.2474,-0.2484,-0.2467,-0.2481,-0.2438,-0.2465,-0.2373,-0.2357,-0.2301,-0.2082,-0.1988,-0.1785,-0.1777,-0.1569,-0.1522,-0.1502,-0.1438,-0.1351,-0.1409,-0.1175,-0.1138,-0.126,-0.1255,-0.1251,0,-0.2294,-0.2285,-0.2335,-0.2317,-0.2341,-0.2334,-0.2307,-0.2363,-0.2316,-0.2245,-0.2159,-0.1956,-0.1801,-0.1428,-0.1353,-0.1161,-0.1267,-0.1055,-0.1295,-0.1294,-0.1307,-0.1384,-0.138,-0.1162,-0.1157,-0.1154,-0.1151,0,-0.2166,-0.2187,-0.2189,-0.2154,-0.213,-0.2107,-0.2083,-0.204,-0.2064,-0.1999,-0.1848,-0.1724,-0.1411,-0.1199,-0.0947,-0.0894,-0.1077,-0.0971,-0.0998,-0.1228,-0.1275,-0.1221,-0.1398,-0.1117,-0.112,-0.1123,-0.1124,-0.1126,-0.2047,-0.201,-0.1996,-0.1944,-0.192,-0.1849,-0.1764,-0.1751,-0.1668,-0.1527,-0.1527,-0.1269,-0.1148,-0.0822,-0.0742,-0.0664,-0.0772,-0.0745,-0.08,-0.0863,-0.0901,-0.0954,-0.0603,-0.0603,-0.0603,-0.0604,-0.0604,0,-0.1867,-0.1826,-0.1771,-0.1698,-0.1586,-0.1645,-0.1565,-0.1459,-0.1316,-0.1216,-0.1082,-0.0816,-0.0687,-0.0604,-0.0568,-0.0552,-0.0622,-0.0551,-0.0723,-0.0718,-0.0765,-0.0843,-0.0495,-0.0495,-0.0495,-0.0495,-0.0495,-0.0495,-0.1765,-0.1637,-0.1603,-0.1371,-0.1315,-0.113,-0.1055,-0.0964,-0.0862,-0.0601,-0.0389,-0.0253,-0.028,-0.0516,-0.0569,-0.0554,-0.0608,-0.0567,-0.0571,-0.0712,-0.0739,-0.0765,-0.0852,-0.0512,-0.0512,-0.0548,-0.0549,-0.0549]},{"header":{"parameterUnit":"m.s-1","parameterCategory":2,"la1":30.2991,"la2":30.254,"lo1":-89.0895,"lo2":-89.0444,"dy":0.0017,"dx":0.0017,"nx":28,"ny":28,"refTime":"2025-07-20T03:00:00:Z","depth":"0","parameterNumber":3,"parameterNumberName":"V-component_of_CURRENTS"},"data":[0,0,0,0,0,0,0,0,0,0,0,0,0,0,0,0,0,0,0,0,0,0,0,0,0,0,0,0,0,0,0,0,0,0,0,0,0,0,0,0,0,0,0,0,0,0,0,0,0,0,0,0,0,0,0,0,0,0,-0.0856,-0.0855,0,-0.0786,-0.0785,-0.0784,-0.0716,-0.0715,-0.0714,-0.0713,-0.0614,-0.0612,-0.0611,0,0,0,0,0,0,0,0,0,0,0,0,0,-0.0834,-0.0835,-0.0856,-0.0855,-0.0854,-0.0786,-0.0785,-0.0784,-0.0716,-0.0715,-0.0714,-0.0713,-0.0614,-0.0612,-0.061,0,0,0,0,0,0,0,0,0,0,0,0,0,-0.0813,-0.0836,-0.0856,-0.0811,-0.0806,-0.0786,-0.0785,-0.0784,-0.0717,-0.0715,-0.0714,-0.0712,-0.0615,-0.0613,-0.061,-0.0625,0,0,-0.0602,-0.0601,0,0,0,0,0,0,0,0,-0.0815,-0.0815,-0.0819,-0.0814,-0.0808,-0.0757,-0.074,-0.0729,-0.0717,-0.0752,-0.0713,-0.0711,-0.0659,-0.0653,-0.0646,-0.0621,-0.0616,-0.0602,-0.0601,-0.06,-0.0599,0,0,0,0,0,0,0,-0.0816,-0.0817,-0.083,-0.0818,-0.0811,-0.076,-0.0757,-0.0738,-0.0716,-0.0749,-0.0744,-0.0734,-0.0656,-0.0648,-0.0643,-0.0615,-0.0602,-0.06,-0.0598,-0.0597,-0.0553,-0.0553,0,0,0,0,0,0,-0.0829,-0.0819,-0.0832,-0.0828,-0.0806,-0.0762,-0.0758,-0.0776,-0.0717,-0.0706,-0.0735,-0.0731,-0.0654,-0.0646,-0.0639,-0.0641,-0.06,-0.0597,-0.0596,-0.0552,-0.0553,-0.0553,0,0,0,0,0,0,-0.083,-0.0832,-0.0835,-0.0818,-0.0814,-0.0765,-0.0785,-0.0776,-0.0762,-0.0706,-0.0694,-0.073,-0.0652,-0.0643,-0.0623,-0.0636,-0.0596,-0.0594,-0.0552,-0.0552,-0.0553,-0.0652,0,0,0,0,0,0,-0.083,-0.0834,-0.0853,-0.082,-0.0816,-0.0834,-0.0786,-0.0775,-0.0758,-0.0752,-0.0699,-0.0688,-0.065,-0.0628,-0.0621,-0.0632,-0.0592,-0.0551,-0.0552,-0.0553,-0.0648,-0.0656,-0.0662,0,0,0,0,0,-0.083,-0.0876,-0.0856,-0.0857,-0.0846,-0.0835,-0.0829,-0.0787,-0.076,-0.0767,-0.0725,-0.0689,-0.0626,-0.0627,-0.0618,-0.0629,-0.0551,-0.0552,-0.0553,-0.0645,-0.0654,-0.0662,0,0,0,0,0,0,-0.0881,-0.0872,-0.0849,-0.0891,-0.0864,-0.0823,-0.0829,-0.0795,-0.0769,-0.0762,-0.0703,-0.069,-0.0678,-0.064,-0.0642,-0.0615,-0.0579,-0.0578,-0.0652,-0.066,-0.0667,-0.0678,-0.059,0,0,0,0,0,-0.0901,-0.093,-0.0898,-0.0928,-0.0921,-0.0874,-0.0863,-0.0835,-0.0804,-0.079,-0.075,-0.0706,-0.0678,-0.0658,-0.0631,-0.0623,-0.0509,-0.0619,-0.0627,-0.0633,-0.0635,-0.0454,-0.0444,-0.0555,-0.0555,-0.0555,0,0,-0.0925,-0.0925,-0.0938,-0.0939,-0.0916,-0.0929,-0.0865,-0.0861,-0.0864,-0.0785,-0.0785,-0.0738,-0.0682,-0.0672,-0.0662,-0.064,-0.0541,-0.0634,-0.064,-0.0638,-0.0453,-0.0442,-0.0432,-0.0556,-0.0556,-0.0556,0,0,-0.0991,-0.0991,-0.1032,-0.1021,-0.0998,-0.0973,-0.0974,-0.0936,-0.0913,-0.0906,-0.0845,-0.0804,-0.0769,-0.0723,-0.0697,-0.0725,-0.0589,-0.0713,-0.0753,-0.0578,-0.0566,-0.0555,-0.0392,-0.0365,-0.071,-0.071,-0.071,0,-0.1018,-0.1066,-0.1038,-0.107,-0.1067,-0.1,-0.103,-0.1008,-0.0965,-0.0939,-0.0921,-0.0817,-0.0794,-0.0737,-0.0764,-0.0742,-0.061,-0.0731,-0.0584,-0.0571,-0.0557,-0.0392,-0.0361,-0.0715,-0.0714,-0.0714,-0.0713,0,-0.1104,-0.1138,-0.1162,-0.1181,-0.1177,-0.1192,-0.1153,-0.1134,-0.1094,-0.1052,-0.0985,-0.0919,-0.0845,-0.0837,-0.0826,-0.0726,-0.0652,-0.0617,-0.0562,-0.0551,-0.0379,-0.0345,-0.0722,-0.072,-0.0718,-0.0717,0,0,-0.1167,-0.1215,-0.1221,-0.1232,-0.1234,-0.123,-0.1242,-0.121,-0.1176,-0.1121,-0.1043,-0.1023,-0.0943,-0.0907,-0.0842,-0.072,-0.0547,-0.0645,-0.0633,-0.0482,-0.0134,-0.0155,-0.0118,-0.046,-0.0455,-0.0451,-0.005,0,-0.1233,-0.1315,-0.1323,-0.1372,-0.1396,-0.1349,-0.1355,-0.1313,-0.125,-0.1158,-0.1048,-0.0968,-0.0977,-0.0912,-0.0799,-0.0587,-0.0461,-0.0658,-0.0169,-0.0155,-0.0172,-0.0082,-0.0088,0.0262,-0.0016,-0.001,-0.0006,0,-0.1302,-0.1343,-0.1421,-0.1436,-0.1441,-0.146,-0.1408,-0.14,-0.1276,-0.1215,-0.1097,-0.0985,-0.0819,-0.0811,-0.0444,-0.0551,-0.0378,-0.0219,-0.0198,-0.016,-0.0112,0.0208,0.0336,0.0411,0.0048,0.0044,0.004,0,-0.1325,-0.1398,-0.1457,-0.1469,-0.1488,-0.1493,-0.1486,-0.1412,-0.1362,-0.1213,-0.1119,-0.0917,-0.0748,-0.0506,-0.0247,-0.0302,0.0201,0.0183,0.033,0.0333,0.0447,0.0449,0.0705,0.0438,0.0437,0.0436,0.0435,0,-0.1377,-0.1409,-0.1469,-0.1493,-0.1518,-0.1521,-0.1496,-0.146,-0.1347,-0.1254,-0.1133,-0.0961,-0.0657,-0.0358,-0.0159,0.0209,0.0286,0.0353,0.0445,0.0408,0.0401,0.0564,0.0569,0.0451,0.0448,0.0445,0.0442,0,-0.1368,-0.1426,-0.1471,-0.1519,-0.1529,-0.1532,-0.1503,-0.1457,-0.1379,-0.1225,-0.1165,-0.0897,-0.0518,-0.0219,0.0238,0.0346,0.0751,0.0767,0.0682,0.0752,0.088,0.0877,0.1246,0.1342,0.1016,0.1018,0.1019,0,-0.1362,-0.1399,-0.1471,-0.1485,-0.1505,-0.151,-0.1496,-0.1462,-0.1398,-0.1176,-0.1072,-0.0708,-0.0413,0.0223,0.0499,0.0897,0.0932,0.1062,0.0901,0.0911,0.0983,0.0962,0.1013,0.1048,0.105,0.1052,0.1053,0,-0.1321,-0.1361,-0.1399,-0.1443,-0.1455,-0.1457,-0.1437,-0.1395,-0.1315,-0.1187,-0.0909,-0.0651,-0.0092,0.0362,0.0792,0.0985,0.1092,0.1097,0.1185,0.1081,0.1014,0.1141,0.0743,0.1066,0.1064,0.1064,0.1063,0.1062,-0.1256,-0.1278,-0.1339,-0.1365,-0.1386,-0.138,-0.1345,-0.1305,-0.1203,-0.0973,-0.0761,-0.0328,0.0216,0.0834,0.1009,0.127,0.1248,0.1324,0.1349,0.1349,0.1337,0.0922,0.1269,0.1269,0.1269,0.1268,0.1268,0,-0.1143,-0.12,-0.1241,-0.1278,-0.127,-0.1309,-0.1271,-0.1202,-0.1067,-0.083,-0.0544,0.0157,0.0641,0.1047,0.141,0.1517,0.1535,0.1579,0.1571,0.1637,0.1374,0.126,0.1527,0.1527,0.1526,0.1526,0.1526,0.1526,-0.1082,-0.1102,-0.115,-0.1138,-0.1161,-0.111,-0.1074,-0.0991,-0.0821,-0.0409,0.0002,0.0394,0.0946,0.1406,0.1696,0.1729,0.1859,0.1823,0.1936,0.1717,0.1693,0.1671,0.1567,0.1894,0.1894,0.2184,0.2187,0.2189]}],[{"header":{"parameterUnit":"m.s-1","parameterCategory":2,"la1":30.2991,"la2":30.254,"lo1":-89.0895,"lo2":-89.0444,"dy":0.0017,"dx":0.0017,"nx":28,"ny":28,"refTime":"2025-07-20T03:00:00:Z","depth":"2","parameterNumber":2,"parameterNumberName":"U-component_of_CURRENTS"},"data":[0,0,0,0,0,0,0,0,0,0,0,0,0,0,0,0,0,0,0,0,0,0,0,0,0,0,0,0,0,0,0,0,0,0,0,0,0,0,0,0,0,0,0,0,0,0,0,0,0,0,0,0,0,0,0,0,0,0,-0.2083,-0.2084,0,-0.2193,-0.2194,-0.2195,-0.2245,-0.2245,-0.2245,-0.2245,-0.2363,-0.2366,-0.2369,0,0,0,0,0,0,0,0,0,0,0,0,0,-0.1973,-0.1974,-0.2083,-0.2084,-0.2086,-0.2192,-0.2194,-0.2195,-0.2245,-0.2245,-0.2245,-0.2245,-0.2362,-0.2366,-0.2369,0,0,0,0,0,0,0,0,0,0,0,0,0,-0.2044,-0.1974,-0.2082,-0.2124,-0.2129,-0.2192,-0.2194,-0.2196,-0.2245,-0.2245,-0.2245,-0.2245,-0.2361,-0.2365,-0.237,-0.24,0,0,-0.2385,-0.2387,0,0,0,0,0,0,0,0,-0.204,-0.2048,-0.2116,-0.2121,-0.2127,-0.2206,-0.2199,-0.2265,-0.2245,-0.22,-0.2245,-0.2245,-0.2312,-0.2321,-0.234,-0.2406,-0.2411,-0.2385,-0.2388,-0.239,-0.2391,0,0,0,0,0,0,0,-0.2035,-0.2044,-0.2125,-0.2118,-0.2124,-0.2157,-0.2166,-0.2212,-0.2254,-0.2204,-0.2208,-0.2222,-0.2315,-0.2335,-0.2343,-0.2413,-0.2385,-0.2389,-0.2392,-0.2394,-0.2479,-0.2479,0,0,0,0,0,0,-0.2021,-0.2039,-0.2122,-0.2129,-0.2083,-0.2159,-0.2169,-0.218,-0.2254,-0.2265,-0.2222,-0.2224,-0.2327,-0.2338,-0.2348,-0.2379,-0.239,-0.2394,-0.2397,-0.248,-0.2479,-0.2479,0,0,0,0,0,0,-0.2018,-0.2027,-0.2117,-0.2087,-0.2101,-0.216,-0.2172,-0.2182,-0.2211,-0.2267,-0.2279,-0.2241,-0.2328,-0.2341,-0.2378,-0.2384,-0.2396,-0.2401,-0.2481,-0.248,-0.2479,-0.2448,0,0,0,0,0,0,-0.2014,-0.2025,-0.203,-0.2086,-0.2102,-0.215,-0.2173,-0.2184,-0.2219,-0.2223,-0.2288,-0.2298,-0.2329,-0.2371,-0.2383,-0.2391,-0.2404,-0.2481,-0.248,-0.2479,-0.245,-0.2446,-0.2443,0,0,0,0,0,-0.201,-0.2022,-0.2029,-0.2039,-0.2106,-0.215,-0.2161,-0.2202,-0.222,-0.2229,-0.2265,-0.2296,-0.2372,-0.2374,-0.2389,-0.2399,-0.2482,-0.2481,-0.2479,-0.2451,-0.2447,-0.2443,0,0,0,0,0,0,-0.1987,-0.203,-0.2039,-0.2066,-0.2099,-0.2158,-0.218,-0.2205,-0.2244,-0.2253,-0.2298,-0.2311,-0.2335,-0.2371,-0.2372,-0.2416,-0.2429,-0.2431,-0.2403,-0.2399,-0.2396,-0.2411,-0.2408,0,0,0,0,0,-0.198,-0.199,-0.2039,-0.2056,-0.2077,-0.2127,-0.2152,-0.218,-0.2222,-0.224,-0.2283,-0.2321,-0.2341,-0.2373,-0.2395,-0.2439,-0.2452,-0.2449,-0.2446,-0.2443,-0.2462,-0.2459,-0.2457,-0.2474,-0.2474,-0.2474,0,0,-0.198,-0.2,-0.201,-0.205,-0.2085,-0.2122,-0.2142,-0.2184,-0.2212,-0.2248,-0.2298,-0.2308,-0.2343,-0.2371,-0.2389,-0.2409,-0.2443,-0.2442,-0.2439,-0.246,-0.2457,-0.2456,-0.2454,-0.2474,-0.2474,-0.2474,0,0,-0.1982,-0.1999,-0.2013,-0.2041,-0.2086,-0.212,-0.213,-0.2191,-0.2214,-0.2254,-0.2271,-0.2288,-0.2346,-0.2366,-0.2384,-0.2381,-0.2409,-0.2384,-0.2407,-0.2402,-0.2401,-0.24,-0.2407,-0.2407,-0.2402,-0.2402,-0.2402,0,-0.1978,-0.2001,-0.2024,-0.2049,-0.2079,-0.2119,-0.2153,-0.2185,-0.2245,-0.2266,-0.2265,-0.2322,-0.2343,-0.2379,-0.2369,-0.2377,-0.2381,-0.242,-0.2398,-0.2398,-0.2398,-0.2405,-0.2405,-0.2401,-0.2401,-0.2401,-0.2401,0,-0.1996,-0.2017,-0.2032,-0.2072,-0.2104,-0.2139,-0.2187,-0.2218,-0.2247,-0.2276,-0.2304,-0.2322,-0.2361,-0.2357,-0.2368,-0.238,-0.2384,-0.2377,-0.241,-0.2394,-0.2402,-0.2403,-0.2398,-0.2399,-0.2399,-0.24,0,0,-0.1978,-0.2034,-0.2037,-0.2056,-0.2121,-0.2147,-0.2198,-0.225,-0.2283,-0.2314,-0.2353,-0.2364,-0.2371,-0.239,-0.2397,-0.2401,-0.2387,-0.2395,-0.2395,-0.2405,-0.2384,-0.2227,-0.2214,-0.2372,-0.2372,-0.2372,-0.2387,0,-0.1985,-0.2022,-0.2057,-0.2101,-0.2131,-0.2184,-0.2224,-0.2272,-0.231,-0.2354,-0.237,-0.2402,-0.2385,-0.2402,-0.2396,-0.2404,-0.2391,-0.2385,-0.2397,-0.2398,-0.2262,-0.221,-0.2023,-0.2006,-0.2389,-0.2389,-0.2389,0,-0.199,-0.2012,-0.2053,-0.2111,-0.2131,-0.2162,-0.2234,-0.2276,-0.2343,-0.2374,-0.2412,-0.2435,-0.247,-0.2435,-0.2444,-0.2442,-0.2405,-0.2395,-0.2395,-0.2266,-0.2242,-0.2085,-0.1994,-0.2391,-0.2391,-0.2391,-0.2391,0,-0.1949,-0.2009,-0.2035,-0.2057,-0.2132,-0.2158,-0.22,-0.2273,-0.2302,-0.2393,-0.2439,-0.2474,-0.2483,-0.2481,-0.2435,-0.2459,-0.2407,-0.2444,-0.2265,-0.2256,-0.2109,-0.2084,-0.2406,-0.2406,-0.2406,-0.2406,-0.2406,0,-0.1937,-0.1955,-0.2013,-0.2024,-0.2048,-0.2123,-0.2158,-0.2217,-0.2292,-0.2326,-0.2438,-0.2452,-0.2484,-0.2459,-0.2444,-0.2332,-0.2408,-0.2258,-0.2237,-0.2089,-0.2063,-0.2413,-0.2414,-0.2406,-0.2406,-0.2406,-0.2406,0,-0.188,-0.1925,-0.1947,-0.2012,-0.2024,-0.2039,-0.2103,-0.2121,-0.2244,-0.23,-0.2338,-0.2415,-0.2406,-0.2402,-0.2364,-0.2303,-0.2251,-0.2168,-0.1987,-0.1942,-0.2125,-0.2124,-0.206,-0.2054,-0.205,-0.2046,-0.2042,0,-0.1853,-0.1857,-0.1902,-0.1897,-0.1918,-0.1949,-0.1953,-0.2059,-0.2082,-0.2254,-0.2254,-0.2295,-0.2261,-0.2165,-0.2049,-0.1978,-0.2077,-0.1761,-0.1763,-0.2097,-0.2085,-0.2091,-0.2097,-0.1576,-0.1569,-0.1563,-0.1559,0,-0.1781,-0.1796,-0.1802,-0.1792,-0.1789,-0.1796,-0.1823,-0.183,-0.1968,-0.2028,-0.207,-0.2079,-0.2007,-0.1801,-0.1673,-0.1624,-0.178,-0.1641,-0.2022,-0.1668,-0.1634,-0.1624,-0.1647,-0.1508,-0.1513,-0.1517,-0.152,-0.1522,-0.1702,-0.1681,-0.1681,-0.1662,-0.1658,-0.1631,-0.1607,-0.1629,-0.1632,-0.1692,-0.179,-0.1737,-0.1708,-0.1402,-0.1313,-0.1245,-0.1401,-0.1369,-0.1391,-0.1417,-0.1333,-0.1289,-0.1086,-0.1089,-0.1091,-0.1093,-0.1094,0,-0.1585,-0.1568,-0.1546,-0.1509,-0.1452,-0.1509,-0.1501,-0.1449,-0.1388,-0.1405,-0.1411,-0.1237,-0.1073,-0.1074,-0.0866,-0.0838,-0.0882,-0.0832,-0.0896,-0.0943,-0.0986,-0.0885,-0.0517,-0.0516,-0.0515,-0.0514,0,0,-0.1517,-0.1451,-0.1439,-0.1309,-0.129,-0.1206,-0.1187,-0.1122,-0.1093,-0.0966,-0.0897,-0.0978,-0.0994,-0.074,-0.0696,-0.057,-0.0765,-0.0539,-0.0992,-0.1112,-0.1154,-0.1271,-0.1163,0,0,0,0,0]},{"header":{"parameterUnit":"m.s-1","parameterCategory":2,"la1":30.2991,"la2":30.254,"lo1":-89.0895,"lo2":-89.0444,"dy":0.0017,"dx":0.0017,"nx":28,"ny":28,"refTime":"2025-07-20T03:00:00:Z","depth":"2","parameterNumber":3,"parameterNumberName":"V-component_of_CURRENTS"},"data":[0,0,0,0,0,0,0,0,0,0,0,0,0,0,0,0,0,0,0,0,0,0,0,0,0,0,0,0,0,0,0,0,0,0,0,0,0,0,0,0,0,0,0,0,0,0,0,0,0,0,0,0,0,0,0,0,0,0,-0.0231,-0.023,0,-0.0131,-0.013,-0.0128,-0.0049,-0.0049,-0.0048,-0.0048,0.0155,0.016,0.0165,0,0,0,0,0,0,0,0,0,0,0,0,0,-0.0288,-0.0287,-0.0231,-0.023,-0.0229,-0.0131,-0.013,-0.0128,-0.0049,-0.0049,-0.0048,-0.0047,0.0154,0.0159,0.0165,0,0,0,0,0,0,0,0,0,0,0,0,0,-0.023,-0.0287,-0.0231,-0.018,-0.0175,-0.0132,-0.013,-0.0128,-0.0049,-0.0049,-0.0048,-0.0047,0.0152,0.0159,0.0166,0.0197,0,0,0.0189,0.0192,0,0,0,0,0,0,0,0,-0.0234,-0.0228,-0.0189,-0.0184,-0.0178,-0.0105,-0.0075,-0.0015,-0.005,-0.0094,-0.0048,-0.0047,0.0075,0.0089,0.0109,0.0207,0.0215,0.0189,0.0194,0.0197,0.0199,0,0,0,0,0,0,0,-0.0238,-0.0231,-0.0188,-0.0188,-0.0181,-0.014,-0.0132,-0.0064,-0.001,-0.009,-0.0085,-0.0079,0.0079,0.0102,0.0115,0.0218,0.0189,0.0196,0.02,0.0203,0.0374,0.0374,0,0,0,0,0,0,-0.0261,-0.0236,-0.0191,-0.0185,-0.0208,-0.0141,-0.013,-0.0126,-0.0013,0.0003,-0.008,-0.0076,0.0089,0.0106,0.0122,0.0175,0.0197,0.0204,0.0208,0.0374,0.0374,0.0374,0,0,0,0,0,0,-0.0263,-0.0258,-0.0195,-0.021,-0.02,-0.0141,-0.0136,-0.0125,-0.0101,-0.0007,0.0012,-0.0069,0.009,0.0112,0.0179,0.0183,0.0207,0.0214,0.0373,0.0374,0.0374,0.0275,0,0,0,0,0,0,-0.0265,-0.0259,-0.0262,-0.0212,-0.02,-0.0176,-0.0137,-0.0123,-0.01,-0.0094,0.0009,0.0028,0.0092,0.0167,0.0186,0.0194,0.022,0.0373,0.0374,0.0374,0.0278,0.0272,0.0266,0,0,0,0,0,-0.0267,-0.0276,-0.0263,-0.0258,-0.0207,-0.0177,-0.0166,-0.0119,-0.0101,-0.0094,-0.0027,0.0025,0.0182,0.0173,0.0195,0.0205,0.0373,0.0373,0.0374,0.0281,0.0273,0.0267,0,0,0,0,0,0,-0.0299,-0.0268,-0.0253,-0.0251,-0.0221,-0.0165,-0.0157,-0.0127,-0.007,-0.0061,0.0027,0.0051,0.0108,0.017,0.0158,0.0255,0.0286,0.0291,0.0208,0.0202,0.0196,0.0184,0.0226,0,0,0,0,0,-0.0311,-0.0311,-0.0273,-0.0271,-0.0262,-0.0212,-0.0194,-0.0164,-0.011,-0.0085,-0.0015,0.0062,0.0125,0.0172,0.0235,0.0294,0.0348,0.0315,0.0309,0.0303,0.0309,0.036,0.0358,0.0374,0.0374,0.0374,0,0,-0.0323,-0.0307,-0.0306,-0.0278,-0.0251,-0.0239,-0.0198,-0.0178,-0.0159,-0.007,-0.0021,0.0038,0.0132,0.019,0.0223,0.0246,0.0332,0.0304,0.0298,0.0308,0.036,0.0358,0.0357,0.0374,0.0374,0.0374,0,0,-0.0351,-0.0335,-0.0345,-0.0326,-0.0297,-0.0263,-0.0264,-0.0213,-0.0181,-0.0132,-0.0069,-0.0008,0.0095,0.0162,0.021,0.0213,0.0287,0.0232,0.0209,0.0257,0.0255,0.0255,0.0335,0.0342,0.0242,0.0241,0.0241,0,-0.0366,-0.0373,-0.0342,-0.0346,-0.0334,-0.0281,-0.0285,-0.0244,-0.0175,-0.0149,-0.0128,0.0009,0.0085,0.0162,0.0164,0.0201,0.0245,0.0224,0.0247,0.0248,0.0249,0.0331,0.034,0.0237,0.0237,0.0238,0.0238,0,-0.04,-0.0403,-0.0408,-0.0394,-0.0376,-0.0372,-0.0321,-0.0293,-0.0252,-0.0205,-0.0137,-0.0043,0.0042,0.0073,0.0126,0.0176,0.0211,0.0218,0.0257,0.0241,0.0329,0.0341,0.023,0.0232,0.0233,0.0234,0,0,-0.044,-0.0435,-0.0437,-0.0442,-0.0404,-0.0395,-0.0364,-0.032,-0.0298,-0.0227,-0.0189,-0.0082,-0.0037,0.0021,0.009,0.0145,0.0198,0.0182,0.0186,0.0249,0.0324,0.0266,0.0274,0.0196,0.0197,0.0198,0.0386,0,-0.0475,-0.0505,-0.0483,-0.0495,-0.0505,-0.0451,-0.0428,-0.0378,-0.0321,-0.0268,-0.0171,-0.0106,-0.0054,-0.0013,0.0043,0.0175,0.0222,0.0149,0.0343,0.035,0.0288,0.0282,0.025,0.0405,0.0398,0.04,0.0401,0,-0.0516,-0.053,-0.0562,-0.0553,-0.0552,-0.0546,-0.0503,-0.0473,-0.0383,-0.0338,-0.0261,-0.018,-0.0055,-0.004,0.0165,0.0113,0.02,0.0288,0.0297,0.0284,0.0311,0.0421,0.0428,0.0422,0.042,0.0419,0.0417,0,-0.057,-0.0582,-0.0613,-0.0611,-0.0591,-0.059,-0.0569,-0.0499,-0.0469,-0.0378,-0.031,-0.02,-0.0072,0.0015,0.0209,0.0187,0.0417,0.0415,0.0443,0.0443,0.0477,0.0475,0.0506,0.0506,0.0506,0.0505,0.0504,0,-0.062,-0.0641,-0.0645,-0.0663,-0.0688,-0.0651,-0.0651,-0.0608,-0.0538,-0.0469,-0.0347,-0.0236,-0.0053,0.0109,0.0205,0.0379,0.0421,0.0444,0.0477,0.0442,0.0435,0.0494,0.049,0.0512,0.0511,0.0509,0.0508,0,-0.0673,-0.0677,-0.0714,-0.0717,-0.0719,-0.0738,-0.0713,-0.0701,-0.06,-0.0497,-0.0456,-0.0218,-0.0003,0.0156,0.0366,0.0429,0.055,0.058,0.0539,0.0559,0.055,0.0539,0.0644,0.0644,0.0643,0.0643,0.0642,0,-0.0705,-0.0731,-0.0766,-0.079,-0.0796,-0.0812,-0.0814,-0.0757,-0.0734,-0.0469,-0.0419,-0.0158,-0.0006,0.0285,0.0413,0.0546,0.0565,0.0608,0.053,0.0537,0.056,0.055,0.054,0.0574,0.0573,0.0572,0.0571,0,-0.0756,-0.0771,-0.0803,-0.0857,-0.0881,-0.0899,-0.0895,-0.0886,-0.0756,-0.0636,-0.0406,-0.0257,0.0063,0.023,0.0399,0.0467,0.0568,0.0591,0.0646,0.05,0.0473,0.0493,0.0486,0.0564,0.0565,0.0566,0.0566,0.0566,-0.0788,-0.0828,-0.0869,-0.0915,-0.0946,-0.0965,-0.0963,-0.092,-0.0858,-0.0623,-0.0474,-0.0202,-0.0001,0.0221,0.0358,0.0515,0.0499,0.0548,0.0551,0.0555,0.0468,0.0436,0.051,0.051,0.051,0.0511,0.0511,0,-0.0823,-0.0862,-0.0915,-0.0969,-0.1007,-0.1008,-0.0992,-0.0951,-0.0854,-0.0623,-0.0436,-0.022,-0.0049,0.0183,0.0399,0.0489,0.0503,0.0526,0.0538,0.0542,0.0546,0.046,0.05,0.0501,0.0502,0.0502,0,0,-0.0841,-0.09,-0.0928,-0.1,-0.1035,-0.1053,-0.1034,-0.0934,-0.0781,-0.0559,-0.0363,-0.0211,0.0013,0.0155,0.0287,0.0432,0.047,0.044,0.0431,0.0433,0.0438,0.0531,0.0398,0,0,0,0,0]}],[{"header":{"parameterUnit":"m.s-1","parameterCategory":2,"la1":30.2991,"la2":30.254,"lo1":-89.0895,"lo2":-89.0444,"dy":0.0017,"dx":0.0017,"nx":28,"ny":28,"refTime":"2025-07-20T03:00:00:Z","depth":"4","parameterNumber":2,"parameterNumberName":"U-component_of_CURRENTS"},"data":[0,0,0,0,0,0,0,0,0,0,0,0,0,0,0,0,0,0,0,0,0,0,0,0,0,0,0,0,0,0,0,0,0,0,0,0,0,0,0,0,0,0,0,0,0,0,0,0,0,0,0,0,0,0,0,0,0,0,-0.145,-0.1451,0,-0.1496,-0.1496,-0.1497,-0.1524,-0.1524,-0.1525,-0.1525,-0.1588,-0.1589,-0.1591,0,0,0,0,0,0,0,0,0,0,0,0,0,-0.1382,-0.1383,-0.145,-0.1451,-0.1452,-0.1496,-0.1496,-0.1497,-0.1524,-0.1524,-0.1525,-0.1525,-0.1588,-0.1589,-0.1591,0,0,0,0,0,0,0,0,0,0,0,0,0,-0.1416,-0.1383,-0.145,-0.1472,-0.1475,-0.1496,-0.1496,-0.1497,-0.1524,-0.1524,-0.1525,-0.1525,-0.1587,-0.1589,-0.1591,-0.1595,0,0,-0.1598,-0.1598,0,0,0,0,0,0,0,0,-0.1414,-0.1418,-0.1468,-0.1471,-0.1474,-0.1507,-0.1495,-0.1531,-0.1524,-0.1503,-0.1525,-0.1526,-0.1563,-0.1568,-0.1572,-0.1598,-0.16,-0.1598,-0.1599,-0.16,-0.1601,0,0,0,0,0,0,0,-0.1412,-0.1416,-0.1466,-0.1469,-0.1472,-0.1478,-0.1483,-0.1502,-0.1529,-0.1505,-0.1508,-0.1516,-0.1565,-0.157,-0.1574,-0.1601,-0.1598,-0.16,-0.1601,-0.1602,-0.1685,-0.1686,0,0,0,0,0,0,-0.141,-0.1414,-0.1465,-0.1468,-0.1447,-0.1479,-0.1485,-0.1494,-0.1528,-0.1535,-0.1515,-0.1517,-0.1566,-0.1571,-0.1576,-0.1653,-0.16,-0.1602,-0.1603,-0.1684,-0.1686,-0.1687,0,0,0,0,0,0,-0.1408,-0.1414,-0.1463,-0.1444,-0.1451,-0.148,-0.149,-0.1495,-0.1525,-0.1536,-0.1543,-0.1544,-0.1567,-0.1573,-0.1616,-0.1653,-0.1603,-0.1605,-0.1683,-0.1685,-0.1686,-0.1761,0,0,0,0,0,0,-0.1406,-0.1413,-0.1429,-0.1444,-0.1452,-0.1493,-0.149,-0.1495,-0.1529,-0.1532,-0.1563,-0.1568,-0.1567,-0.1613,-0.1618,-0.1655,-0.1606,-0.1682,-0.1684,-0.1686,-0.1758,-0.1765,-0.1772,0,0,0,0,0,-0.1403,-0.1423,-0.143,-0.1437,-0.147,-0.1494,-0.1499,-0.1519,-0.153,-0.1548,-0.1571,-0.1568,-0.1628,-0.1616,-0.1622,-0.166,-0.1681,-0.1683,-0.1686,-0.1755,-0.1764,-0.1772,0,0,0,0,0,0,-0.1404,-0.1428,-0.1436,-0.1463,-0.1485,-0.15,-0.1522,-0.1535,-0.1567,-0.1578,-0.1586,-0.1592,-0.1641,-0.1637,-0.1623,-0.1686,-0.1652,-0.1656,-0.1703,-0.1711,-0.1718,-0.1712,-0.1608,0,0,0,0,0,-0.141,-0.1431,-0.1452,-0.1476,-0.1489,-0.151,-0.1527,-0.1543,-0.1567,-0.1583,-0.1604,-0.1625,-0.1649,-0.1671,-0.1684,-0.1726,-0.1702,-0.175,-0.1758,-0.1764,-0.1761,-0.1755,-0.1762,-0.1694,-0.1694,-0.1694,0,0,-0.1418,-0.1434,-0.1448,-0.1478,-0.1496,-0.1525,-0.1522,-0.1557,-0.159,-0.1585,-0.1641,-0.1653,-0.1664,-0.1707,-0.1729,-0.1715,-0.1771,-0.1766,-0.1772,-0.1765,-0.1758,-0.1765,-0.1771,-0.1695,-0.1695,-0.1695,0,0,-0.1436,-0.1458,-0.148,-0.1503,-0.1538,-0.1552,-0.157,-0.1601,-0.1626,-0.1675,-0.1679,-0.1712,-0.1752,-0.1766,-0.1778,-0.1831,-0.1805,-0.1839,-0.188,-0.1876,-0.1881,-0.1885,-0.1866,-0.1868,-0.1848,-0.1848,-0.1848,0,-0.1448,-0.1475,-0.1491,-0.1519,-0.1545,-0.157,-0.1603,-0.1632,-0.1677,-0.1698,-0.1704,-0.1763,-0.1778,-0.1826,-0.1847,-0.1849,-0.1833,-0.1851,-0.1885,-0.1889,-0.1892,-0.1871,-0.1872,-0.1852,-0.1851,-0.1851,-0.1851,0,-0.1473,-0.1508,-0.1525,-0.1568,-0.1598,-0.1632,-0.1671,-0.171,-0.1744,-0.1766,-0.1824,-0.1843,-0.1871,-0.189,-0.1891,-0.1929,-0.1905,-0.1892,-0.1865,-0.1903,-0.1878,-0.1878,-0.1857,-0.1856,-0.1855,-0.1854,0,0,-0.1461,-0.1529,-0.1538,-0.1566,-0.1629,-0.1651,-0.1716,-0.1767,-0.18,-0.1853,-0.1891,-0.1947,-0.1948,-0.196,-0.1967,-0.1976,-0.1993,-0.1952,-0.195,-0.1933,-0.1973,-0.1822,-0.1807,-0.1988,-0.1989,-0.1989,-0.1947,0,-0.1477,-0.1532,-0.1568,-0.163,-0.166,-0.1711,-0.176,-0.1813,-0.1854,-0.1895,-0.1933,-0.1966,-0.1978,-0.1991,-0.2009,-0.1995,-0.1996,-0.2005,-0.1936,-0.1933,-0.1796,-0.1803,-0.199,-0.1947,-0.1947,-0.1947,-0.1947,0,-0.1483,-0.152,-0.1581,-0.1653,-0.1671,-0.1716,-0.1788,-0.1835,-0.19,-0.193,-0.1977,-0.1991,-0.2033,-0.2021,-0.2031,-0.2036,-0.2009,-0.1995,-0.1993,-0.1822,-0.1781,-0.1898,-0.1946,-0.1946,-0.1946,-0.1946,-0.1946,0,-0.1444,-0.1527,-0.1575,-0.1603,-0.1688,-0.1729,-0.1776,-0.1846,-0.1869,-0.1943,-0.1951,-0.2013,-0.2017,-0.2026,-0.2007,-0.2019,-0.1987,-0.1995,-0.1834,-0.1823,-0.1941,-0.1936,-0.198,-0.198,-0.198,-0.198,-0.198,0,-0.1427,-0.1469,-0.1564,-0.1586,-0.1634,-0.1709,-0.1755,-0.181,-0.1866,-0.1872,-0.1954,-0.1947,-0.2014,-0.2004,-0.2003,-0.1905,-0.1981,-0.1828,-0.1797,-0.1973,-0.1973,-0.194,-0.1936,-0.1979,-0.1979,-0.1979,-0.1979,0,-0.1367,-0.1437,-0.149,-0.1587,-0.1615,-0.1648,-0.1718,-0.1733,-0.1807,-0.1814,-0.1831,-0.189,-0.1871,-0.1906,-0.19,-0.1855,-0.1809,-0.1751,-0.1925,-0.1907,-0.1652,-0.1653,-0.1571,-0.1565,-0.156,-0.1556,-0.1553,0,-0.1336,-0.1361,-0.1464,-0.1483,-0.1527,-0.1582,-0.16,-0.1689,-0.1694,-0.1752,-0.1731,-0.1742,-0.1764,-0.1635,-0.1703,-0.1673,-0.1654,-0.1626,-0.1654,-0.1629,-0.1609,-0.1617,-0.1624,-0.1545,-0.1544,-0.1543,-0.1541,0,-0.1264,-0.1316,-0.1352,-0.1393,-0.1425,-0.1446,-0.1485,-0.147,-0.155,-0.1627,-0.157,-0.1551,-0.1513,-0.1521,-0.1491,-0.1482,-0.1654,-0.1575,-0.1586,-0.1612,-0.1597,-0.1583,-0.1596,-0.1524,-0.1527,-0.1528,-0.1529,0,-0.1201,-0.1205,-0.1258,-0.1277,-0.1314,-0.1294,-0.1332,-0.1322,-0.1336,-0.141,-0.1385,-0.1413,-0.1477,-0.1417,-0.1404,-0.1368,-0.1357,-0.1333,-0.1357,-0.1376,-0.1334,-0.1287,-0.1079,0,0,0,0,0,-0.1128,-0.1115,-0.1129,-0.1138,-0.117,-0.1187,-0.1241,-0.1282,-0.1356,-0.1264,-0.132,-0.1281,-0.1238,-0.1269,-0.1191,-0.1326,-0.1373,-0.1232,-0.1362,-0.143,-0.145,-0.1419,0,0,0,0,0,0,-0.1073,-0.1089,-0.1088,-0.1018,-0.0994,-0.1004,-0.1033,-0.1086,-0.105,-0.1137,-0.1119,-0.119,-0.1173,-0.1245,-0.1157,-0.1165,-0.1218,-0.1264,-0.1261,-0.1419,-0.1437,-0.1452,-0.1428,0,0,0,0,0]},{"header":{"parameterUnit":"m.s-1","parameterCategory":2,"la1":30.2991,"la2":30.254,"lo1":-89.0895,"lo2":-89.0444,"dy":0.0017,"dx":0.0017,"nx":28,"ny":28,"refTime":"2025-07-20T03:00:00:Z","depth":"4","parameterNumber":3,"parameterNumberName":"V-component_of_CURRENTS"},"data":[0,0,0,0,0,0,0,0,0,0,0,0,0,0,0,0,0,0,0,0,0,0,0,0,0,0,0,0,0,0,0,0,0,0,0,0,0,0,0,0,0,0,0,0,0,0,0,0,0,0,0,0,0,0,0,0,0,0,-0.0177,-0.0176,0,-0.013,-0.0129,-0.0129,-0.0084,-0.0083,-0.0083,-0.0083,0.0006,0.0007,0.0009,0,0,0,0,0,0,0,0,0,0,0,0,0,-0.0201,-0.0201,-0.0177,-0.0176,-0.0176,-0.013,-0.0129,-0.0128,-0.0084,-0.0083,-0.0083,-0.0082,0.0005,0.0007,0.0009,0,0,0,0,0,0,0,0,0,0,0,0,0,-0.0175,-0.0201,-0.0177,-0.0149,-0.0146,-0.013,-0.0129,-0.0128,-0.0084,-0.0083,-0.0083,-0.0082,0.0004,0.0007,0.001,0.0014,0,0,0.0019,0.002,0,0,0,0,0,0,0,0,-0.0176,-0.0174,-0.0153,-0.0151,-0.0148,-0.0113,-0.0105,-0.0079,-0.0084,-0.0106,-0.0083,-0.0082,-0.0032,-0.0026,-0.0017,0.0018,0.0022,0.0019,0.0021,0.0022,0.0023,0,0,0,0,0,0,0,-0.0178,-0.0175,-0.0157,-0.0153,-0.0149,-0.013,-0.0125,-0.01,-0.0072,-0.0104,-0.0101,-0.0098,-0.0029,-0.002,-0.0015,0.0023,0.0019,0.0021,0.0023,0.0024,0.0093,0.0093,0,0,0,0,0,0,-0.0189,-0.0177,-0.0158,-0.0156,-0.0162,-0.013,-0.0125,-0.0124,-0.0073,-0.0065,-0.0099,-0.0096,-0.0026,-0.0018,-0.0012,0.0026,0.0022,0.0024,0.0026,0.0093,0.0093,0.0093,0,0,0,0,0,0,-0.0189,-0.0187,-0.016,-0.0166,-0.0161,-0.0131,-0.0129,-0.0123,-0.0114,-0.0069,-0.006,-0.0096,-0.0025,-0.0016,0.0013,0.0029,0.0026,0.0028,0.0093,0.0093,0.0093,0.0083,0,0,0,0,0,0,-0.019,-0.0188,-0.0193,-0.0167,-0.0161,-0.0154,-0.013,-0.0123,-0.0114,-0.011,-0.0064,-0.0055,-0.0023,0.0009,0.0016,0.0033,0.0031,0.0093,0.0093,0.0093,0.0083,0.0082,0.0082,0,0,0,0,0,-0.0191,-0.0201,-0.0193,-0.0191,-0.0168,-0.0154,-0.0149,-0.0124,-0.0114,-0.0113,-0.0079,-0.0056,0.0016,0.0011,0.002,0.0038,0.0093,0.0093,0.0093,0.0083,0.0082,0.0082,0,0,0,0,0,0,-0.0212,-0.0197,-0.0188,-0.0192,-0.0176,-0.0147,-0.0147,-0.013,-0.0104,-0.01,-0.0057,-0.0046,-0.0012,0.0007,0.0001,0.0056,0.0058,0.006,0.0048,0.0048,0.0047,0.0041,0.0033,0,0,0,0,0,-0.0221,-0.0225,-0.0203,-0.0207,-0.0203,-0.0177,-0.0169,-0.0153,-0.0127,-0.0115,-0.0081,-0.0045,-0.0006,0.0015,0.0046,0.0072,0.0077,0.0089,0.0088,0.0088,0.0088,0.0119,0.0121,0.0094,0.0094,0.0094,0,0,-0.023,-0.0223,-0.0224,-0.0212,-0.0199,-0.0193,-0.017,-0.0164,-0.015,-0.0109,-0.0083,-0.0047,-0.0001,0.0035,0.0052,0.0055,0.0091,0.0088,0.0087,0.0088,0.0119,0.0122,0.0125,0.0094,0.0094,0.0094,0,0,-0.0252,-0.0245,-0.0256,-0.0246,-0.0233,-0.0212,-0.0213,-0.0187,-0.0166,-0.0142,-0.0101,-0.0055,-0.0014,0.0038,0.0066,0.0079,0.0086,0.0082,0.0081,0.0111,0.0114,0.0116,0.0093,0.0093,0.0084,0.0084,0.0084,0,-0.0264,-0.0273,-0.0256,-0.0262,-0.0257,-0.0223,-0.0229,-0.0202,-0.0166,-0.0148,-0.0138,-0.0053,-0.0005,0.0056,0.0069,0.0082,0.0073,0.0081,0.0111,0.0114,0.0116,0.0092,0.0093,0.0084,0.0084,0.0084,0.0084,0,-0.0291,-0.0297,-0.0304,-0.0297,-0.0287,-0.0288,-0.0252,-0.0234,-0.0207,-0.0174,-0.0121,-0.0056,-0.0006,0.0024,0.0056,0.0104,0.0079,0.0104,0.0112,0.0119,0.0092,0.0093,0.0083,0.0083,0.0083,0.0084,0,0,-0.0319,-0.0323,-0.0326,-0.0334,-0.0309,-0.0307,-0.0279,-0.0246,-0.0233,-0.0178,-0.0156,-0.0056,-0.0025,0.0009,0.006,0.0102,0.0119,0.0108,0.011,0.0082,0.0135,0.0118,0.0118,0.0144,0.0145,0.0145,0.0096,0,-0.0346,-0.0375,-0.036,-0.0375,-0.0386,-0.0347,-0.0328,-0.0289,-0.0249,-0.0219,-0.0133,-0.0094,-0.003,-0.001,0.0047,0.0099,0.0126,0.0127,0.0134,0.0134,0.0119,0.0121,0.0149,0.0097,0.0097,0.0097,0.0098,0,-0.0376,-0.0393,-0.0423,-0.0424,-0.0425,-0.0424,-0.0396,-0.0374,-0.0308,-0.0278,-0.0213,-0.016,-0.008,-0.0035,0.0058,0.0047,0.0088,0.013,0.0129,0.0122,0.0121,0.0098,0.01,0.0099,0.0099,0.0099,0.0099,0,-0.0415,-0.0434,-0.0463,-0.0465,-0.0458,-0.0461,-0.0449,-0.0397,-0.0383,-0.0321,-0.0312,-0.0213,-0.0181,-0.0095,-0.0006,0.002,0.0067,0.0113,0.0132,0.0128,0.0161,0.016,0.0173,0.0173,0.0173,0.0174,0.0174,0,-0.0448,-0.0472,-0.0492,-0.051,-0.0543,-0.0515,-0.053,-0.0497,-0.046,-0.0446,-0.0354,-0.0324,-0.0192,-0.0143,-0.0051,0.0023,0.0028,0.0124,0.0126,0.0152,0.015,0.0159,0.0159,0.0172,0.0172,0.0172,0.0173,0,-0.0483,-0.0495,-0.0537,-0.0555,-0.0567,-0.0591,-0.0598,-0.06,-0.0558,-0.0543,-0.053,-0.0427,-0.0344,-0.0242,-0.0124,-0.0051,0.0031,0.0054,0.0016,0.0017,0.0078,0.0077,0.0078,0.0077,0.0077,0.0076,0.0076,0,-0.0502,-0.0529,-0.0585,-0.0619,-0.0634,-0.0666,-0.0684,-0.0654,-0.0649,-0.0594,-0.0589,-0.0514,-0.0433,-0.0303,-0.018,-0.0053,-0.0007,-0.0002,0.0111,0.0072,0.0074,0.0074,0.0074,0.0075,0.0075,0.0075,0.0074,0,-0.0537,-0.0563,-0.06,-0.0674,-0.0716,-0.0753,-0.0773,-0.0775,-0.0728,-0.0708,-0.0621,-0.0521,-0.0439,-0.0295,-0.0225,-0.0112,-0.0017,-0.0006,-0.0002,0.0104,0.0069,0.0071,0.0072,0.0072,0.0073,0.0073,0.0073,0,-0.0564,-0.0604,-0.066,-0.0719,-0.0779,-0.081,-0.0816,-0.0795,-0.0779,-0.0699,-0.0679,-0.0551,-0.0478,-0.0329,-0.0252,-0.0162,-0.0093,-0.0045,-0.0037,-0.0033,-0.0027,-0.0087,-0.0133,0,0,0,0,0,-0.0586,-0.0633,-0.0695,-0.0762,-0.0819,-0.0844,-0.0859,-0.0848,-0.0812,-0.0753,-0.0705,-0.0608,-0.044,-0.0364,-0.0271,-0.0256,-0.0099,-0.0146,-0.0045,0.0061,0.0063,0.0092,0,0,0,0,0,0,-0.0603,-0.0669,-0.07,-0.0778,-0.0824,-0.0876,-0.0881,-0.0856,-0.0805,-0.0753,-0.0659,-0.0595,-0.0435,-0.0497,-0.0273,-0.0245,-0.0169,-0.0065,-0.0063,0.0059,0.0061,0.0063,0.0094,0,0,0,0,0]}]]